KMA763 UUBL-ULLI

Flight info

Callsign KMA763
Flight time 1h 14m
Altitude 34000
Route UUBL DCT NENEL P164 DB N50 GENPA GENP1V
Aircraft E145/M-SABDFGRW/S

Departure

Time 2026-04-23 03:41
Airport Semyazino Airport (UUBL)

Arrival

Time 2026-04-23 04:56
Airport Pulkovo Airport (ULLI)
Time Latitude Longitude Altitude Speed Heading
2026-04-23 03:29 56.12362 40.31522 563 ft 0 kts 118°
2026-04-23 03:35 56.12362 40.31523 563 ft 0 kts 118°
2026-04-23 03:35 56.12357 40.31535 563 ft 2 kts 129°
2026-04-23 03:35 56.12345 40.31540 563 ft 2 kts 215°
2026-04-23 03:36 56.12338 40.31504 563 ft 3 kts 270°
2026-04-23 03:36 56.12343 40.31444 563 ft 5 kts 275°
2026-04-23 03:36 56.12347 40.31364 563 ft 7 kts 274°
2026-04-23 03:36 56.12352 40.31262 563 ft 9 kts 274°
2026-04-23 03:37 56.12382 40.31173 563 ft 9 kts
2026-04-23 03:37 56.12450 40.31227 563 ft 11 kts 28°
2026-04-23 03:37 56.12529 40.31306 563 ft 14 kts 28°
2026-04-23 03:37 56.12632 40.31406 563 ft 18 kts 29°
2026-04-23 03:38 56.12759 40.31531 563 ft 22 kts 28°
2026-04-23 03:38 56.12908 40.31678 563 ft 26 kts 28°
2026-04-23 03:38 56.13079 40.31847 563 ft 29 kts 28°
2026-04-23 03:38 56.13261 40.32028 563 ft 29 kts 28°
2026-04-23 03:39 56.13389 40.32155 563 ft 11 kts 29°
2026-04-23 03:39 56.13446 40.32238 563 ft 7 kts 42°
2026-04-23 03:39 56.13473 40.32246 563 ft 4 kts 290°
2026-04-23 03:39 56.13465 40.32230 563 ft 0 kts 208°
2026-04-23 03:40 56.13434 40.32199 563 ft 28 kts 208°
2026-04-23 03:41 56.13043 40.31815 563 ft 96 kts 208°
2026-04-23 03:41 56.12296 40.31077 571 ft 145 kts 208°
2026-04-23 03:41 56.11407 40.30254 1121 ft 143 kts 206°
2026-04-23 03:41 56.10458 40.29449 1428 ft 166 kts 206°
2026-04-23 03:42 56.09358 40.28473 1804 ft 187 kts 208°
2026-04-23 03:42 56.08454 40.26793 2379 ft 196 kts 247°
2026-04-23 03:42 56.08434 40.24357 3093 ft 208 kts 287°
2026-04-23 03:42 56.09360 40.22477 4081 ft 213 kts 326°
2026-04-23 03:43 56.10821 40.21907 4865 ft 226 kts 354°
2026-04-23 03:43 56.12384 40.21845 5597 ft 227 kts 355°
2026-04-23 03:43 56.13959 40.21733 6212 ft 227 kts 344°
2026-04-23 03:43 56.15337 40.20635 6875 ft 221 kts 330°
2026-04-23 03:44 56.16859 40.19858 7391 ft 232 kts 343°
2026-04-23 03:44 56.18458 40.19318 7973 ft 236 kts 343°
2026-04-23 03:44 56.20060 40.18790 8568 ft 239 kts 345°
2026-04-23 03:44 56.21719 40.18248 8926 ft 253 kts 344°
2026-04-23 03:45 56.23541 40.17624 8985 ft 279 kts 344°
2026-04-23 03:45 56.25491 40.16944 9324 ft 290 kts 346°
2026-04-23 03:45 56.27477 40.16314 10000 ft 290 kts 345°
2026-04-23 03:45 56.29487 40.15682 10361 ft 301 kts 345°
2026-04-23 03:46 56.31614 40.14993 10534 ft 317 kts 346°
2026-04-23 03:46 56.33764 40.14272 11132 ft 318 kts 347°
2026-04-23 03:46 56.35932 40.13554 11730 ft 319 kts 347°
2026-04-23 03:46 56.38120 40.12826 12256 ft 322 kts 345°
2026-04-23 03:47 56.40319 40.12096 12866 ft 322 kts 345°
2026-04-23 03:47 56.42525 40.11355 13371 ft 325 kts 345°
2026-04-23 03:47 56.44727 40.10569 13887 ft 326 kts 343°
2026-04-23 03:47 56.46926 40.09682 14419 ft 327 kts 343°
2026-04-23 03:48 56.49156 40.08783 14866 ft 331 kts 343°
2026-04-23 03:48 56.51419 40.07870 15329 ft 335 kts 343°
2026-04-23 03:48 56.53692 40.06955 15815 ft 338 kts 344°
2026-04-23 03:48 56.55980 40.06032 16314 ft 340 kts 343°
2026-04-23 03:49 56.58305 40.05100 16782 ft 344 kts 343°
2026-04-23 03:49 56.60621 40.04182 17240 ft 347 kts 343°
2026-04-23 03:49 56.62996 40.03243 17636 ft 352 kts 343°
2026-04-23 03:49 56.65386 40.02291 17986 ft 357 kts 343°
2026-04-23 03:50 56.67826 40.01318 18445 ft 360 kts 344°
2026-04-23 03:50 56.70264 40.00346 18883 ft 363 kts 343°
2026-04-23 03:50 56.72692 39.99163 19282 ft 362 kts 334°
2026-04-23 03:50 56.74989 39.97341 19735 ft 362 kts 332°
2026-04-23 03:51 56.77286 39.95475 20181 ft 363 kts 330°
2026-04-23 03:51 56.79534 39.93416 20593 ft 362 kts 322°
2026-04-23 03:51 56.81299 39.90341 20960 ft 351 kts 298°
2026-04-23 03:51 56.82346 39.86352 21363 ft 347 kts 288°
2026-04-23 03:52 56.83201 39.82267 21778 ft 347 kts 284°
2026-04-23 03:52 56.83952 39.78086 22185 ft 348 kts 282°
2026-04-23 03:52 56.84656 39.73920 22584 ft 349 kts 282°
2026-04-23 03:52 56.85360 39.69636 22996 ft 351 kts 282°
2026-04-23 03:53 56.86044 39.65420 23394 ft 352 kts 281°
2026-04-23 03:53 56.86733 39.61144 23714 ft 355 kts 281°
2026-04-23 03:53 56.87430 39.56804 24076 ft 357 kts 281°
2026-04-23 03:53 56.88128 39.52445 24448 ft 359 kts 281°
2026-04-23 03:54 56.88822 39.48098 24825 ft 360 kts 281°
2026-04-23 03:54 56.89521 39.43712 25242 ft 360 kts 281°
2026-04-23 03:54 56.90218 39.39322 25625 ft 360 kts 281°
2026-04-23 03:54 56.90911 39.34946 25986 ft 361 kts 281°
2026-04-23 03:55 56.91614 39.30492 25997 ft 372 kts 281°
2026-04-23 03:55 56.92358 39.25769 26070 ft 380 kts 281°
2026-04-23 03:55 56.93089 39.21128 26387 ft 381 kts 281°
2026-04-23 03:55 56.93825 39.16425 26761 ft 380 kts 281°
2026-04-23 03:56 56.94550 39.11795 27080 ft 380 kts 282°
2026-04-23 03:56 56.95284 39.07083 27364 ft 380 kts 282°
2026-04-23 03:56 56.95998 39.02490 27647 ft 381 kts 282°
2026-04-23 03:56 56.96721 38.97822 27955 ft 380 kts 282°
2026-04-23 03:57 56.97448 38.93121 28227 ft 381 kts 282°
2026-04-23 03:57 56.98164 38.88474 28490 ft 381 kts 282°
2026-04-23 03:57 56.98880 38.83816 28758 ft 381 kts 282°
2026-04-23 03:57 56.99601 38.79110 29010 ft 381 kts 283°
2026-04-23 03:58 57.00323 38.74382 29260 ft 381 kts 283°
2026-04-23 03:58 57.01034 38.69722 29490 ft 381 kts 283°
2026-04-23 03:58 57.01750 38.65009 29706 ft 382 kts 283°
2026-04-23 03:58 57.02459 38.60327 29921 ft 383 kts 283°
2026-04-23 03:59 57.03165 38.55658 30129 ft 384 kts 283°
2026-04-23 03:59 57.03881 38.50901 30357 ft 384 kts 284°
2026-04-23 03:59 57.04588 38.46198 30501 ft 384 kts 284°
2026-04-23 03:59 57.05292 38.41503 30689 ft 384 kts 284°
2026-04-23 04:00 57.06005 38.36724 30892 ft 384 kts 284°
2026-04-23 04:00 57.06714 38.31969 31073 ft 385 kts 283°
2026-04-23 04:00 57.07414 38.27250 31266 ft 384 kts 284°
2026-04-23 04:00 57.08120 38.22481 31441 ft 385 kts 284°
2026-04-23 04:01 57.08820 38.17739 31633 ft 384 kts 284°
2026-04-23 04:01 57.09516 38.13011 31822 ft 384 kts 284°
2026-04-23 04:01 57.10216 38.08239 31989 ft 384 kts 284°
2026-04-23 04:01 57.10904 38.03540 32153 ft 385 kts 284°
2026-04-23 04:02 57.11602 37.98757 32310 ft 385 kts 285°
2026-04-23 04:02 57.12289 37.94038 32480 ft 385 kts 285°
2026-04-23 04:02 57.12979 37.89281 32632 ft 385 kts 285°
2026-04-23 04:02 57.13673 37.84476 32662 ft 389 kts 285°
2026-04-23 04:03 57.14337 37.79869 33345 ft 370 kts 285°
2026-04-23 04:03 57.15002 37.75250 33320 ft 374 kts 285°
2026-04-23 04:03 57.16332 37.65953 33328 ft 378 kts 285°
2026-04-23 04:04 57.18143 37.56895 33336 ft 381 kts 292°
2026-04-23 04:04 57.20114 37.47761 33339 ft 385 kts 292°
2026-04-23 04:05 57.22090 37.38518 33342 ft 389 kts 292°
2026-04-23 04:05 57.24075 37.29184 33347 ft 393 kts 292°
2026-04-23 04:06 57.26056 37.19821 33353 ft 396 kts 292°
2026-04-23 04:06 57.28068 37.10274 33358 ft 399 kts 292°
2026-04-23 04:07 57.30059 37.00776 33355 ft 402 kts 292°
2026-04-23 04:07 57.32082 36.91088 33364 ft 404 kts 292°
2026-04-23 04:08 57.34093 36.81403 33365 ft 407 kts 292°
2026-04-23 04:08 57.36107 36.71658 33366 ft 409 kts 292°
2026-04-23 04:09 57.38139 36.61783 33373 ft 411 kts 292°
2026-04-23 04:09 57.40157 36.51924 33374 ft 413 kts 293°
2026-04-23 04:10 57.42181 36.41987 33380 ft 414 kts 293°
2026-04-23 04:10 57.44208 36.31984 33385 ft 416 kts 292°
2026-04-23 04:11 57.46240 36.21908 33385 ft 417 kts 292°
2026-04-23 04:11 57.48262 36.11829 33385 ft 418 kts 292°
2026-04-23 04:12 57.50290 36.01720 33404 ft 419 kts 293°
2026-04-23 04:12 57.52321 35.91572 33411 ft 420 kts 293°
2026-04-23 04:13 57.54341 35.81429 33411 ft 421 kts 293°
2026-04-23 04:13 57.56367 35.71201 33416 ft 422 kts 293°
2026-04-23 04:14 57.58371 35.61031 33421 ft 423 kts 293°
2026-04-23 04:14 57.60384 35.50741 33428 ft 424 kts 292°
2026-04-23 04:15 57.62487 35.40546 33435 ft 423 kts 295°
2026-04-23 04:16 57.65637 35.25207 33449 ft 424 kts 294°
2026-04-23 04:16 57.67729 35.14925 33458 ft 424 kts 294°
2026-04-23 04:17 57.69798 35.04702 33460 ft 425 kts 294°
2026-04-23 04:17 57.72376 34.94962 33477 ft 417 kts 308°
2026-04-23 04:18 57.76155 34.86827 33478 ft 415 kts 315°
2026-04-23 04:18 57.79954 34.78759 33481 ft 415 kts 314°
2026-04-23 04:19 57.83770 34.70575 33480 ft 416 kts 315°
2026-04-23 04:19 57.87569 34.62393 33481 ft 416 kts 315°
2026-04-23 04:20 57.91362 34.54192 33487 ft 416 kts 315°
2026-04-23 04:20 57.95155 34.45967 33491 ft 416 kts 315°
2026-04-23 04:21 57.98933 34.37742 33500 ft 416 kts 315°
2026-04-23 04:21 58.02708 34.29495 33506 ft 415 kts 314°
2026-04-23 04:22 58.06486 34.21244 33507 ft 415 kts 316°
2026-04-23 04:22 58.10272 34.12905 33507 ft 415 kts 314°
2026-04-23 04:23 58.14019 34.04641 33528 ft 415 kts 315°
2026-04-23 04:23 58.17788 33.96302 33539 ft 416 kts 315°
2026-04-23 04:24 58.21527 33.88000 33542 ft 416 kts 315°
2026-04-23 04:24 58.25274 33.79655 33548 ft 416 kts 315°
2026-04-23 04:25 58.29036 33.71243 33544 ft 416 kts 315°
2026-04-23 04:25 58.32755 33.62897 33544 ft 417 kts 315°
2026-04-23 04:26 58.36511 33.54436 33558 ft 416 kts 315°
2026-04-23 04:26 58.40241 33.46006 33567 ft 416 kts 315°
2026-04-23 04:27 58.43950 33.37592 33572 ft 415 kts 316°
2026-04-23 04:27 58.45801 33.33382 33342 ft 417 kts 315°
2026-04-23 04:27 58.47670 33.29121 32874 ft 409 kts 315°
2026-04-23 04:28 58.51239 33.20967 32082 ft 395 kts 316°
2026-04-23 04:28 58.52970 33.17002 31683 ft 389 kts 316°
2026-04-23 04:28 58.54708 33.13057 31274 ft 384 kts 316°
2026-04-23 04:28 58.56384 33.09183 30870 ft 380 kts 316°
2026-04-23 04:29 58.58055 33.05335 30465 ft 378 kts 316°
2026-04-23 04:29 58.59734 33.01469 30051 ft 378 kts 316°
2026-04-23 04:29 58.61407 32.97609 29645 ft 378 kts 317°
2026-04-23 04:29 58.63079 32.93749 29225 ft 378 kts 317°
2026-04-23 04:30 58.64753 32.89873 28801 ft 379 kts 317°
2026-04-23 04:30 58.66424 32.86000 28377 ft 379 kts 317°
2026-04-23 04:30 58.68104 32.82101 27948 ft 378 kts 317°
2026-04-23 04:30 58.69772 32.78222 27543 ft 378 kts 317°
2026-04-23 04:31 58.71426 32.74369 27145 ft 378 kts 317°
2026-04-23 04:31 58.73093 32.70478 26719 ft 377 kts 317°
2026-04-23 04:31 58.74745 32.66617 26307 ft 377 kts 317°
2026-04-23 04:31 58.76408 32.62725 25891 ft 376 kts 317°
2026-04-23 04:32 58.78046 32.58883 25499 ft 375 kts 318°
2026-04-23 04:32 58.79689 32.55025 25042 ft 374 kts 318°
2026-04-23 04:32 58.81332 32.51160 24576 ft 372 kts 319°
2026-04-23 04:32 58.82967 32.47308 24107 ft 371 kts 318°
2026-04-23 04:33 58.84587 32.43481 23640 ft 370 kts 319°
2026-04-23 04:33 58.86214 32.39637 23163 ft 369 kts 318°
2026-04-23 04:33 58.87810 32.35857 22688 ft 367 kts 319°
2026-04-23 04:33 58.89427 32.32023 22196 ft 366 kts 317°
2026-04-23 04:34 58.91029 32.28216 21705 ft 365 kts 317°
2026-04-23 04:34 58.92607 32.24460 21212 ft 363 kts 317°
2026-04-23 04:34 58.94190 32.20687 20707 ft 361 kts 317°
2026-04-23 04:34 58.95768 32.16921 20201 ft 360 kts 317°
2026-04-23 04:35 58.97334 32.13177 19689 ft 358 kts 317°
2026-04-23 04:35 58.98872 32.09494 19184 ft 356 kts 317°
2026-04-23 04:35 59.00435 32.05743 18648 ft 355 kts 317°
2026-04-23 04:35 59.01957 32.02090 18129 ft 353 kts 317°
2026-04-23 04:36 59.03503 31.98369 17589 ft 351 kts 317°
2026-04-23 04:36 59.05021 31.94711 17054 ft 349 kts 316°
2026-04-23 04:36 59.06514 31.91105 16525 ft 346 kts 316°
2026-04-23 04:36 59.08019 31.87468 15987 ft 344 kts 316°
2026-04-23 04:37 59.09514 31.83846 15448 ft 343 kts 316°
2026-04-23 04:37 59.11019 31.80391 14923 ft 336 kts 322°
2026-04-23 04:37 59.12694 31.77245 14415 ft 334 kts 323°
2026-04-23 04:37 59.14362 31.74097 13895 ft 332 kts 322°
2026-04-23 04:38 59.15995 31.71007 13383 ft 331 kts 322°
2026-04-23 04:38 59.17628 31.67909 12859 ft 324 kts 322°
2026-04-23 04:38 59.19205 31.64913 12338 ft 316 kts 322°
2026-04-23 04:38 59.20750 31.61974 11814 ft 308 kts 322°
2026-04-23 04:39 59.22257 31.59104 11296 ft 299 kts 322°
2026-04-23 04:39 59.23723 31.56309 10832 ft 290 kts 322°
2026-04-23 04:39 59.25126 31.53629 10433 ft 280 kts 322°
2026-04-23 04:39 59.26498 31.51004 10075 ft 270 kts 322°
2026-04-23 04:40 59.27804 31.48502 9768 ft 261 kts 322°
2026-04-23 04:40 59.29076 31.46063 9494 ft 251 kts 322°
2026-04-23 04:40 59.30326 31.43669 9230 ft 251 kts 322°
2026-04-23 04:40 59.31558 31.41302 8964 ft 249 kts 323°
2026-04-23 04:41 59.32784 31.38944 8697 ft 247 kts 323°
2026-04-23 04:41 59.33998 31.36604 8431 ft 244 kts 323°
2026-04-23 04:41 59.34834 31.34993 8249 ft 243 kts 322°
2026-04-23 04:41 59.36024 31.32699 7986 ft 241 kts 322°
2026-04-23 04:42 59.37217 31.30396 7722 ft 241 kts 322°
2026-04-23 04:42 59.38405 31.28100 7459 ft 241 kts 322°
2026-04-23 04:42 59.39592 31.25801 7194 ft 240 kts 322°
2026-04-23 04:42 59.40757 31.23544 6929 ft 237 kts 322°
2026-04-23 04:43 59.41914 31.21298 6740 ft 230 kts 322°
2026-04-23 04:43 59.43048 31.19095 6482 ft 229 kts 322°
2026-04-23 04:43 59.44168 31.16921 6219 ft 227 kts 322°
2026-04-23 04:43 59.45290 31.14739 5953 ft 226 kts 322°
2026-04-23 04:44 59.46387 31.12602 5693 ft 224 kts 322°
2026-04-23 04:44 59.47489 31.10457 5428 ft 222 kts 322°
2026-04-23 04:44 59.48576 31.08335 5162 ft 220 kts 322°
2026-04-23 04:44 59.49649 31.06239 4900 ft 217 kts 322°
2026-04-23 04:45 59.50722 31.04141 4636 ft 215 kts 322°
2026-04-23 04:45 59.51771 31.02070 4373 ft 214 kts 320°
2026-04-23 04:45 59.52734 30.99873 4113 ft 214 kts 318°
2026-04-23 04:45 59.53698 30.97673 3850 ft 212 kts 318°
2026-04-23 04:46 59.54661 30.95471 3585 ft 211 kts 319°
2026-04-23 04:46 59.55604 30.93315 3320 ft 209 kts 318°
2026-04-23 04:46 59.56557 30.91133 3053 ft 208 kts 318°
2026-04-23 04:46 59.57484 30.89008 2794 ft 207 kts 317°
2026-04-23 04:47 59.58421 30.86859 2535 ft 206 kts 317°
2026-04-23 04:47 59.59333 30.84761 2485 ft 196 kts 317°
2026-04-23 04:47 59.60207 30.82754 2482 ft 193 kts 318°
2026-04-23 04:47 59.61083 30.80744 2486 ft 197 kts 318°
2026-04-23 04:48 59.61984 30.78671 2487 ft 201 kts 317°
2026-04-23 04:48 59.62906 30.76545 2492 ft 204 kts 318°
2026-04-23 04:48 59.63836 30.74400 2488 ft 207 kts 317°
2026-04-23 04:48 59.64769 30.72248 2501 ft 209 kts 317°
2026-04-23 04:49 59.65716 30.70058 2494 ft 208 kts 317°
2026-04-23 04:49 59.66637 30.67985 2484 ft 194 kts 324°
2026-04-23 04:49 59.67654 30.66503 2495 ft 175 kts 331°
2026-04-23 04:49 59.68599 30.65189 2534 ft 163 kts 332°
2026-04-23 04:50 59.69521 30.63909 2526 ft 159 kts 332°
2026-04-23 04:50 59.70374 30.62718 2492 ft 145 kts 332°
2026-04-23 04:50 59.71179 30.61589 2499 ft 138 kts 331°
2026-04-23 04:50 59.71958 30.60481 2504 ft 138 kts 333°
2026-04-23 04:51 59.72734 30.59366 2506 ft 138 kts 332°
2026-04-23 04:51 59.73518 30.58248 2507 ft 140 kts 332°
2026-04-23 04:51 59.74292 30.57093 2506 ft 144 kts 325°
2026-04-23 04:51 59.74813 30.55278 2511 ft 156 kts 303°
2026-04-23 04:52 59.75207 30.53243 2509 ft 159 kts 301°
2026-04-23 04:52 59.75565 30.51154 2512 ft 161 kts 299°
2026-04-23 04:52 59.75904 30.49036 2337 ft 160 kts 297°
2026-04-23 04:52 59.76199 30.47077 2119 ft 136 kts 299°
2026-04-23 04:53 59.76460 30.45371 1949 ft 128 kts 300°
2026-04-23 04:53 59.76724 30.43666 1783 ft 132 kts 298°
2026-04-23 04:53 59.76990 30.41911 1605 ft 134 kts 298°
2026-04-23 04:53 59.77253 30.40153 1413 ft 133 kts 297°
2026-04-23 04:54 59.77516 30.38405 1224 ft 132 kts 296°
2026-04-23 04:54 59.77778 30.36657 1037 ft 131 kts 296°
2026-04-23 04:54 59.78038 30.34925 855 ft 131 kts 294°
2026-04-23 04:54 59.78292 30.33186 673 ft 130 kts 293°
2026-04-23 04:55 59.78538 30.31495 500 ft 129 kts 293°
2026-04-23 04:55 59.78802 30.29802 322 ft 128 kts 292°
2026-04-23 04:55 59.79057 30.28092 131 ft 128 kts 292°
2026-04-23 04:55 59.79301 30.26497 84 ft 107 kts 289°
2026-04-23 04:56 59.79431 30.25608 83 ft 22 kts 285°
2026-04-23 04:56 59.79463 30.25469 83 ft 7 kts 333°
2026-04-23 04:56 59.79498 30.25555 83 ft 12 kts 77°
2026-04-23 04:56 59.79518 30.25729 83 ft 14 kts 76°
2026-04-23 04:57 59.79532 30.25844 83 ft 11 kts 75°
2026-04-23 04:57 59.79556 30.25954 84 ft 10 kts 38°
2026-04-23 04:57 59.79621 30.26008 85 ft 12 kts 18°
2026-04-23 04:57 59.79718 30.26091 84 ft 11 kts 16°
2026-04-23 04:58 59.79776 30.26129 84 ft 7 kts 35°
2026-04-23 04:58 59.79783 30.26183 83 ft 5 kts 92°
2026-04-23 04:58 59.79775 30.26253 83 ft 4 kts 104°
2026-04-23 04:58 59.79771 30.26281 83 ft 0 kts 106°